FW1746 Weather Reports


Display with metric or nautical units.
time (UTC)temp
F
wind
direction
speed
MPH
gust
MPH
rain 1hr
in
rain 24hr
in
rain mn
in
humidity
%
barometer
mb
20260510203050 44 149 1.0 7.0 0.00 0.03 0.00 71 1007.9
20260510201549 44 188 1.0 6.0 0.00 0.03 0.00 70 1007.9
20260510200044 45 200 1.0 6.0 0.00 0.03 0.00 69 1008.0
20260510193034 46 248 2.0 8.0 0.00 0.03 0.00 68 1008.1
20260510191532 47 202 2.0 8.0 0.00 0.03 0.00 66 1008.0
20260510190036 47 235 1.0 7.0 0.00 0.03 0.00 65 1008.0
20260510183017 48 244 3.0 11.0 0.00 0.03 0.00 63 1008.1
20260510181535 49 220 2.0 9.0 0.00 0.03 0.00 61 1008.2
20260510180021 49 234 3.0 10.0 0.00 0.03 0.00 59 1008.2
20260510173020 51 175 5.0 14.0 0.00 0.03 0.00 55 1008.5
20260510171510 52 155 4.0 11.0 0.00 0.03 0.00 53 1008.6
20260510170006 53 212 3.0 12.0 0.00 0.03 0.00 51 1008.7
20260510163102 54 190 3.0 10.0 0.00 0.03 0.00 50 1008.9
20260510161553 55 190 4.0 10.0 0.00 0.03 0.00 51 1009.1
20260510160055 56 152 5.0 12.0 0.00 0.03 0.00 50 1009.2
20260510153054 56 188 3.0 13.0 0.00 0.03 0.00 46 1009.5
20260510151551 57 192 3.0 12.0 0.00 0.03 0.00 49 1009.7
20260510150046 57 193 1.0 12.0 0.00 0.03 0.00 45 1009.9
20260510143038 57 175 4.0 11.0 0.00 0.03 0.00 48 1010.2
20260510141535 58 225 4.0 11.0 0.00 0.03 0.00 47 1010.3
20260510140033 57 218 2.0 14.0 0.00 0.03 0.00 51 1010.4
20260510133041 57 228 2.0 10.0 0.00 0.03 0.00 45 1010.8
20260510131538 58 167 6.0 12.0 0.00 0.03 0.00 48 1010.8
20260510130037 58 171 4.0 12.0 0.00 0.03 0.00 47 1011.0
20260510123034 57 209 1.0 10.0 0.00 0.03 0.00 39 1011.3
20260510121531 58 180 1.0 8.0 0.00 0.03 0.00 38 1011.5
20260510120033 57 233 4.0 11.0 0.00 0.03 0.00 40 1011.7
20260510113025 55 234 1.0 4.0 0.00 0.03 0.03 44 1012.1
20260510111523 55 272 2.0 10.0 0.00 0.03 0.03 43 1012.3
20260510110030 56 223 0.0 6.0 0.00 0.03 0.03 42 1012.4
20260510103046 55 227 0.0 7.0 0.00 0.03 0.03 46 1012.8
20260510101543 55 227 0.0 7.0 0.00 0.03 0.03 45 1013.0
20260510100050 54 235 0.0 13.0 0.00 0.03 0.03 47 1013.2
20260510094544 55 242 3.0 14.0 0.00 0.03 0.03 47 1013.3
20260510093035 54 225 4.0 11.0 0.00 0.03 0.03 44 1013.4
20260510090030 53 265 2.0 16.0 0.00 0.03 0.03 47 1013.9
20260510084524 52 274 5.0 13.0 0.00 0.03 0.03 51 1014.1
20260510083034 51 261 5.0 14.0 0.00 0.03 0.03 54 1014.1
20260510080020 50 272 1.0 4.0 0.00 0.03 0.03 61 1014.4
20260510074519 49 234 1.0 11.0 0.00 0.03 0.03 63 1014.6
20260510073018 49 212 1.0 13.0 0.00 0.03 0.03 67 1014.7
20260510070026 47 279 6.0 14.0 0.00 0.03 0.03 72 1014.8
20260510064524 46 217 2.0 11.0 0.00 0.03 0.03 75 1015.0
20260510063018 45 259 1.0 13.0 0.00 0.03 0.03 77 1015.1
20260510060009 44 218 2.0 7.0 0.00 0.03 0.03 88 1015.2
20260510054510 44 231 2.0 7.0 0.00 0.03 0.03 89 1015.4
20260510053005 44 215 1.0 9.0 0.00 0.03 0.03 91 1015.3
20260510050009 45 207 2.0 8.0 0.00 0.03 0.03 94 1015.4
20260510044511 45 223 1.0 5.0 0.00 0.03 0.03 94 1015.4
20260510043006 45 192 0.0 2.0 0.00 0.03 0.03 95 1015.6
20260510040010 45 192 0.0 3.0 0.01 0.03 0.03 94 1015.9
20260510034512 45 194 0.0 2.0 0.01 0.03 0.03 94 1016.0
20260510033007 45 193 0.0 2.0 0.02 0.03 0.03 93 1016.1
20260510030059 45 194 0.0 2.0 0.02 0.02 0.02 92 1016.3
20260510024600 46 190 0.0 2.0 0.02 0.02 0.02 92 1016.4
20260510023053 46 190 1.0 4.0 0.01 0.02 0.02 91 1016.6
20260510021651 46 200 0.0 2.0 0.00 0.01 0.01 90 1016.8
20260510020047 46 202 0.0 3.0 0.00 0.01 0.01 90 1016.8
20260510014540 46 207 0.0 3.0 0.00 0.01 0.01 90 1016.9
20260510013041 46 232 0.0 1.0 0.01 0.01 0.01 91 1016.9
20260510011636 46 232 0.0 2.0 0.01 0.01 0.01 90 1017.1
20260510010050 46 232 0.0 1.0 0.01 0.01 0.01 89 1017.2
20260510004533 46 232 0.0 1.0 0.01 0.01 0.01 89 1017.4
20260510003033 46 232 0.0 1.0 0.00 0.00 0.00 89 1017.6
20260510001630 46 231 0.0 2.0 0.00 0.00 0.00 88 1017.8
20260510000028 46 263 0.0 2.0 0.00 0.00 0.00 89 1017.9
20260509234526 46 229 0.0 2.0 0.00 0.00 0.00 88 1018.0
20260509233025 46 232 0.0 2.0 0.00 0.00 0.00 88 1018.1
20260509231624 46 250 0.0 0.0 0.00 0.00 0.00 88 1018.3
20260509230031 46 229 0.0 2.0 0.00 0.00 0.00 88 1018.4
20260509224529 45 232 0.0 2.0 0.00 0.00 0.00 87 1018.5
20260509223027 45 231 0.0 0.0 0.00 0.00 0.00 85 1018.6
20260509221626 46 249 0.0 1.0 0.00 0.00 0.00 84 1018.6
20260509220016 46 250 0.0 1.0 0.00 0.00 0.00 83 1018.7
20260509214516 46 249 0.0 2.0 0.00 0.00 0.00 82 1018.7
20260509213013 47 252 0.0 1.0 0.00 0.00 0.00 82 1018.8
20260509211610 48 266 2.0 4.0 0.00 0.00 0.00 80 1018.9
20260509210008 48 248 1.0 5.0 0.00 0.00 0.00 79 1019.0